Palestine, IL

5:39 PM CST on December 04, 2016 (GMT -0600)
Robinson Municipal

Weather History for KRSV - April, 2014

Change the Weather History Date:

Sunday, April 6, 2014

  Actual Average (KLWV) Record (KLWV)
Temperature  
Mean Temperature 48 °F 52 °F  
Max Temperature 60 °F 63 °F 84 °F (2001)
Min Temperature 35 °F 42 °F 29 °F (1992)
Degree Days  
Heating Degree Days 18 13  
Month to date heating degree days 83  
Since 1 July heating degree days 4380  
Cooling Degree Days 0 0  
Month to date cooling degree days 0  
Year to date cooling degree days 2  
Moisture  
Dew Point 38 °F    
Average Humidity 74    
Maximum Humidity 100    
Minimum Humidity 40    
Precipitation  
Precipitation 0.00 in 0.11 in 0.71 in (1985)
Month to date precipitation 0.66  
Year to date precipitation 8.48  
Sea Level Pressure  
Sea Level Pressure 30.06 in    
Wind  
Wind Speed 2 mph (East)    
Max Wind Speed 14 mph    
Max Gust Speed 16 mph    
Visibility 9 miles    
Events      
T = Trace of Precipitation, MM = Missing Value Source: NWS Daily Summary

Daily Weather History Graph

Daily Weather History Graph

Search for Another Location

Airport or City:

Trip Planner

Search our weather history database for the weather conditions in past years. The results will help you decide how hot, cold, wet, or windy it might be!

Date:

Astronomy

Apr. 06, 2014 Rise Set
Actual Time 6:27 AM CDT 7:19 PM CDT
Civil Twilight 6:00 AM CDT 7:46 PM CDT
Nautical Twilight 5:28 AM CDT 8:18 PM CDT
Astronomical Twilight 4:55 AM CDT 8:51 PM CDT
Moon 11:29 AM CDT (4/6) 1:13 AM CDT (4/6)
Length of Visible Light 13h 45m
Length of Day
12h 51m
Waxing Crescent, 44% of the Moon is Illuminated
Apr 6
Waxing Crescent
Apr 7
First Quarter
Apr 15
Full
Apr 22
Last Quarter
Apr 29
New

Hourly Weather History & Observations

Time (CDT) Temp. Windchill Dew Point Humidity Pressure Visibility Wind Dir Wind Speed Gust Speed Precip Events Conditions
12:15 AM 41.0 °F - 39.2 °F 93% 30.18 in 10.0 mi Calm Calm - N/A   Clear
12:35 AM 38.7 °F - 37.0 °F 94% 30.17 in 10.0 mi Calm Calm - N/A   Clear
12:55 AM 38.3 °F - 36.9 °F 95% 30.16 in 10.0 mi Calm Calm - N/A   Clear
1:15 AM 38.7 °F - 38.3 °F 99% 30.16 in 10.0 mi Calm Calm - N/A   Clear
1:35 AM 38.3 °F - 37.8 °F 98% 30.16 in 10.0 mi Calm Calm - N/A   Clear
1:55 AM 37.8 °F - 37.4 °F 99% 30.16 in 10.0 mi Calm Calm - N/A   Clear
2:15 AM 37.9 °F - 37.8 °F 99% 30.15 in 10.0 mi Calm Calm - N/A   Clear
2:35 AM 37.4 °F - 37.0 °F 99% 30.15 in 10.0 mi Calm Calm - N/A   Clear
2:55 AM 37.4 °F - 37.0 °F 99% 30.15 in 10.0 mi Calm Calm - N/A   Clear
3:15 AM 37.4 °F - 37.0 °F 99% 30.15 in 10.0 mi Calm Calm - N/A   Clear
3:35 AM 37.2 °F - 36.9 °F 99% 30.14 in 10.0 mi Calm Calm - N/A   Clear
3:50 AM 35.8 °F - 35.6 °F 99% 30.14 in 10.0 mi Calm Calm - N/A   Clear
4:15 AM 36.7 °F - 36.5 °F 99% 30.14 in 10.0 mi Calm Calm - N/A   Clear
4:35 AM 36.5 °F - 36.1 °F 99% 30.14 in 7.0 mi Calm Calm - N/A   Clear
4:55 AM 35.8 °F - 35.8 °F 100% 30.15 in 7.0 mi Calm Calm - N/A   Clear
5:15 AM 35.4 °F - 35.2 °F 99% 30.15 in 7.0 mi Calm Calm - N/A   Clear
5:35 AM 35.6 °F - 35.6 °F 100% 30.16 in 7.0 mi Calm Calm - N/A   Clear
5:55 AM 35.6 °F - 35.6 °F 100% 30.16 in 7.0 mi Calm Calm - N/A   Clear
6:15 AM 35.2 °F - 35.2 °F 100% 30.16 in 5.0 mi Calm Calm - N/A   Clear
6:35 AM 35.2 °F - 35.2 °F 100% 30.17 in 5.0 mi Calm Calm - N/A   Clear
6:55 AM 35.6 °F - 35.6 °F 100% 30.18 in 5.0 mi Calm Calm - N/A   Clear
7:15 AM 35.8 °F - 35.8 °F 100% 30.18 in 5.0 mi Calm Calm - N/A   Clear
7:35 AM 37.6 °F - 37.2 °F 99% 30.18 in 7.0 mi Calm Calm - N/A   Clear
7:55 AM 38.7 °F - 38.5 °F 99% 30.18 in 7.0 mi Calm Calm - N/A   Clear
8:15 AM 41.2 °F - 39.6 °F 94% 30.18 in 10.0 mi Calm Calm - N/A   Clear
8:35 AM 43.2 °F 41.5 °F 39.4 °F 86% 30.17 in 10.0 mi East 3.5 mph - N/A   Clear
8:55 AM 44.6 °F 41.4 °F 37.9 °F 77% 30.16 in 10.0 mi East 5.8 mph - N/A   Clear
9:15 AM 45.1 °F 42.0 °F 38.3 °F 77% 30.16 in 10.0 mi East 5.8 mph - N/A   Clear
9:35 AM 46.2 °F 42.2 °F 39.4 °F 77% 30.14 in 10.0 mi East 8.1 mph - N/A   Clear
9:55 AM 47.7 °F - 39.2 °F 72% 30.14 in 10.0 mi East 9.2 mph - N/A   Clear
10:15 AM 50.2 °F - 39.2 °F 66% 30.13 in 10.0 mi ESE 10.4 mph - N/A   Clear
10:35 AM 51.6 °F - 39.0 °F 62% 30.13 in 10.0 mi East 13.8 mph - N/A   Clear
10:55 AM 51.8 °F - 39.2 °F 62% 30.12 in 10.0 mi ESE 9.2 mph - N/A   Clear
11:15 AM 52.3 °F - 37.6 °F 57% 30.11 in 10.0 mi ESE 11.5 mph - N/A   Clear
11:35 AM 53.1 °F - 37.4 °F 55% 30.09 in 10.0 mi East 8.1 mph - N/A   Clear
11:55 AM 53.8 °F - 37.2 °F 54% 30.10 in 10.0 mi East 9.2 mph - N/A   Clear
12:15 PM 54.3 °F - 36.0 °F 50% 30.09 in 10.0 mi East 9.2 mph - N/A   Clear
12:35 PM 55.4 °F - 35.1 °F 46% 30.09 in 10.0 mi East 4.6 mph - N/A   Clear
12:55 PM 55.8 °F - 37.2 °F 50% 30.07 in 10.0 mi ESE 9.2 mph - N/A   Clear
1:15 PM 55.8 °F - 36.0 °F 47% 30.06 in 10.0 mi East 8.1 mph - N/A   Clear
1:35 PM 56.8 °F - 36.7 °F 47% 30.04 in 10.0 mi East 8.1 mph - N/A   Clear
1:55 PM 57.0 °F - 37.9 °F 49% 30.03 in 10.0 mi ENE 9.2 mph - N/A   Clear
2:15 PM 57.7 °F - 37.4 °F 47% 30.04 in 10.0 mi East 4.6 mph - N/A   Clear
2:35 PM 58.1 °F - 35.2 °F 42% 30.03 in 10.0 mi East 5.8 mph - N/A   Clear
2:55 PM 59.2 °F - 36.5 °F 43% 30.02 in 10.0 mi ESE 8.1 mph 16.1 mph N/A   Clear
3:15 PM 59.9 °F - 36.3 °F 41% 30.01 in 10.0 mi East 9.2 mph - N/A   Clear
3:35 PM 58.5 °F - 34.0 °F 40% 30.00 in 10.0 mi East 8.1 mph - N/A   Clear
3:55 PM 59.0 °F - 34.7 °F 40% 29.97 in 10.0 mi ENE 8.1 mph - N/A   Clear
4:15 PM 59.4 °F - 36.1 °F 42% 29.96 in 10.0 mi East 10.4 mph - N/A   Clear
4:35 PM 60.1 °F - 36.9 °F 42% 29.96 in 10.0 mi East 8.1 mph - N/A   Clear
4:55 PM 59.0 °F - 35.6 °F 42% 29.96 in 10.0 mi ESE 6.9 mph - N/A   Clear
5:15 PM 58.3 °F - 34.7 °F 41% 29.96 in 10.0 mi SSE 3.5 mph - N/A   Clear
5:35 PM 58.1 °F - 36.9 °F 45% 29.96 in 10.0 mi SSE 5.8 mph - N/A   Clear
5:55 PM 57.7 °F - 34.7 °F 42% 29.95 in 10.0 mi Calm Calm - N/A   Clear
6:15 PM 57.2 °F - 38.3 °F 49% 29.95 in 10.0 mi SSE 3.5 mph - N/A   Clear
6:35 PM 56.5 °F - 38.5 °F 51% 29.94 in 10.0 mi ESE 4.6 mph - N/A   Clear
6:55 PM 55.4 °F - 39.2 °F 54% 29.94 in 10.0 mi ESE 3.5 mph - N/A   Clear
7:15 PM 55.0 °F - 42.4 °F 63% 29.94 in 10.0 mi Calm Calm - N/A   Clear
7:35 PM 54.5 °F - 45.1 °F 71% 29.94 in 10.0 mi Calm Calm - N/A   Clear
7:55 PM 53.6 °F - 42.4 °F 66% 29.94 in 10.0 mi North 3.5 mph - N/A   Clear
8:15 PM 52.0 °F - 44.4 °F 75% 29.94 in 10.0 mi NNE 4.6 mph - N/A   Clear
8:35 PM 51.4 °F - 44.6 °F 77% 29.95 in 10.0 mi North 4.6 mph - N/A   Clear
8:55 PM 51.4 °F - 43.5 °F 74% 29.94 in 10.0 mi NNE 4.6 mph - N/A   Clear
9:15 PM 50.4 °F - 44.1 °F 79% 29.93 in 10.0 mi NNE 4.6 mph - N/A   Clear
9:35 PM 50.0 °F - 43.9 °F 79% 29.94 in 10.0 mi Calm Calm - N/A   Clear
9:55 PM 50.4 °F - 44.6 °F 81% 29.94 in 10.0 mi Calm Calm - N/A   Clear
10:15 PM 49.6 °F - 45.0 °F 84% 29.93 in 10.0 mi Calm Calm - N/A   Clear
10:35 PM 48.7 °F - 44.6 °F 86% 29.93 in 10.0 mi Calm Calm - N/A   Clear
10:55 PM 48.2 °F - 44.2 °F 86% 29.92 in 10.0 mi Calm Calm - N/A   Clear
11:15 PM 48.2 °F - 44.8 °F 88% 29.92 in 10.0 mi Calm Calm - N/A   Clear
11:35 PM 48.4 °F - 44.8 °F 87% 29.91 in 10.0 mi Calm Calm - N/A   Clear
11:55 PM 48.4 °F - 44.4 °F 86% 29.91 in 10.0 mi Calm Calm - N/A   Clear